Find Starlink 36686

NORAD ID: 68719 Int'l Des: 2026-081 Owner: SPXS Country: US Constellation: starlink operational
LEOCIRCULAR

Aktuelle Ansicht

3D-Globus wird geladen...

Über Starlink 36686

Beschreibung wird geladen...

Nächste Überflüge

Passes for default location (London). Set your location on the main map for personalized predictions.

Höhenverlauf

Loading altitude history...

Zweizeiliger Elementsatz

1 68719U 26081W 26150.83335647 -.00004270 00000-0 -11537-3 0 9996
2 68719 53.1591 12.2592 0001269 85.2421 263.2638 15.34387922 6053
Epoch: 30. Mai 2026 • Age: 8 hours

Aktueller Status

Höhe 467.1 km
Geschwindigkeit 7.64 km/s
Subsatellitenpunkt 46.86°N, 176.18°W
Startdatum 14. Apr. 2026
Alter 0.1 years
Typ internet

Technische Details

Klassifizierung Payload
Masse 575.00 kg
Trockenmasse 530.00 kg
Gesamtmasse 575.00 kg
Länge 0.30 m
Durchmesser 4.10 m
Spannweite 29.00 m
Form Box + pan
Hersteller SPXS
Bus-Typ Starlink V2MO
Phasenstatus In Orbit
Besitzer/Staat SPXS/US

Most Searched